Regional Weather Roundup
Issued by NWS Cleveland, OH

Home | Current Version | Previous Version | Graphics & Text | Print | Product List | Glossary On
Versions: 1 2 3 4 5 6 7 8 9 10 11 12 13 14 15 16 17 18 19 20 21 22 23 24 25 26 27 28 29 30 31 32 33 34 35 36 37 38 39 40 41 42 43 44 45 46 47 48 49 50
000
ASUS41 KCLE 220802
RWRCLE
OHIO REGIONAL WEATHER ROUNDUP
NATIONAL WEATHER SERVICE CLEVELAND, OH
400 AM EDT MON SEP 22 2014

NOTE: "FAIR" INDICATES FEW OR NO CLOUDS BELOW 12,000 FEET WITH NO
SIGNIFICANT WEATHER AND/OR OBSTRUCTIONS TO VISIBILITY.

OHZ001>008-015>018-024>027-034-035-043-044-220900-
   NORTHWEST OHIO

CITY           SKY/WX    TMP DP  RH WIND       PRES   REMARKS
DEFIANCE       CLOUDY   N/A N/A N/A NW8       30.10R
FINDLAY        CLOUDY    50  43  77 NW10      30.06R
TOLEDO EXPRESS CLOUDY    48  38  68 N12G18    30.08R
TOLEDO EXEC    CLOUDY    49  38  65 NW13      30.08R
LIMA           CLOUDY    50  45  83 N7        30.07S
$$

OHZ009>014-019>023-028>033-038-089-220900-
   NORTHEAST OHIO

CITY           SKY/WX    TMP DP  RH WIND       PRES   REMARKS
CLE-HOPKINS    CLOUDY    52  44  74 NW16G23   30.02S
CLE-LAKEFRONT  CLOUDY    55  44  66 NW20G26   29.99R
CUY CO. ARPT   NOT AVBL
LORAIN-ELYRIA  CLOUDY    55  44  66 N12       30.03R
ASHTABULA      LGT RAIN  51  48  89 NW7       29.97R FOG
AKRON-CANTON   CLOUDY    53  47  79 NW10      29.98R
WOOSTER        LGT RAIN  51  48  89 NW12G22   30.01R
MANSFIELD      CLOUDY    50  46  86 NW8       30.03R
YOUNGSTOWN     CLOUDY    52  48  86 NW15      29.95R
$$

OHZ042-051>053-060>062-070>072-077>081-220900-
  SOUTHWEST OHIO

CITY           SKY/WX    TMP DP  RH WIND       PRES   REMARKS
CINC-COVINGTON CLEAR     52  46  80 N9        30.09R
CINC-LUNKEN    CLEAR     53  46  77 N9        30.10R
HAMILTON       CLEAR     51  45  79 NW10      30.10R
DAYTON         CLEAR     49  44  83 NW12      30.09R
WRIGHT-PAT AFB MOCLDY    51  47  85 NW7       30.07R
DAYTON GENERAL CLEAR     50  46  86 NW7       30.07R
WILMINGTON     CLEAR     50  46  86 NW9       30.06R
$$

OHZ036-037-039>041-045>050-054>059-063>069-073>076-082>088-220900-
  CENTRAL AND SOUTHEAST OHIO

CITY           SKY/WX    TMP DP  RH WIND       PRES   REMARKS
COLUMBUS       PTCLDY    56  46  69 N5        30.03R
OSU AIRPORT    CLOUDY    54  48  80 NW7       30.04R
BOLTON FIELD   NOT AVBL
RICKENBACK AFB NOT AVBL
NEWARK         CLOUDY    53  47  79 N3        30.03R
MARION         CLOUDY    50  45  83 N12       30.05R
LANCASTER      CLOUDY    53  48  83 CALM      30.04R
ZANESVILLE     LGT RAIN  53  50  89 NW9       30.02R FOG
NEW PHILLY     LGT RAIN  53  50  89 NW7       30.00R
$$


USA.gov is the U.S. government's official web portal to all federal, state and local government web resources and services.